FW1683 Weather Reports


Display with metric or nautical units.
time (UTC)temp
F
wind
direction
speed
MPH
gust
MPH
rain 1hr
in
rain 24hr
in
rain mn
in
humidity
%
barometer
mb
20260903032007 78 353 1.0 2.0 0.00 0.00 0.00 88 1020.4
20260903031004 78 339 2.0 3.0 0.00 0.00 0.00 88 1020.4
20260903030006 78 356 1.0 2.0 0.00 0.00 0.00 87 1020.4
20260903025005 78 327 1.0 2.0 0.00 0.00 0.00 87 1020.4
20260903024004 78 322 1.0 2.0 0.00 0.00 0.00 87 1020.4
20260903023007 78 336 1.0 2.0 0.00 0.00 0.00 87 1020.4
20260903022011 78 270 1.0 2.0 0.00 0.00 0.00 87 1020.4
20260903020005 78 273 2.0 3.0 0.00 0.00 0.00 88 1020.5
20260903014005 78 274 2.0 3.0 0.00 0.00 0.00 88 1020.5
20260903012004 78 257 2.0 3.0 0.00 0.00 0.00 88 1020.6
20260903011004 78 270 2.0 3.0 0.00 0.00 0.00 88 1020.5
20260903010008 78 268 1.0 2.0 0.00 0.00 0.00 88 1020.6
20260903001004 79 261 2.0 3.0 0.00 0.00 0.00 88 1020.9
20260903000009 79 265 3.0 4.0 0.00 0.00 0.00 88 1021.0
20260902235005 79 267 3.0 5.0 0.00 0.00 0.00 88 1020.9
20260902234005 79 264 3.0 5.0 0.00 0.00 0.00 88 1020.9
20260902233006 79 270 2.0 4.0 0.00 0.00 0.00 87 1020.9
20260902223005 80 258 2.0 4.0 0.00 0.00 0.00 86 1020.9
20260902222005 80 254 2.0 3.0 0.00 0.00 0.00 85 1020.9
20260902215004 80 228 2.0 3.0 0.00 0.00 0.00 83 1020.9
20260902213008 80 231 2.0 3.0 0.00 0.00 0.00 84 1020.8
20260902212005 80 222 2.0 4.0 0.00 0.00 0.00 84 1020.9
20260902211004 80 225 3.0 4.0 0.00 0.00 0.00 83 1020.9
20260902210007 80 223 3.0 5.0 0.00 0.00 0.00 82 1020.9
20260902205010 81 114 1.0 3.0 0.00 0.00 0.00 81 1020.7
20260902204009 81 49 2.0 3.0 0.00 0.00 0.00 82 1020.7
20260902203021 81 44 2.0 4.0 0.00 0.00 0.00 82 1020.5
20260902202005 81 49 2.0 4.0 0.00 0.00 0.00 81 1020.4
20260902201004 81 76 4.0 6.0 0.00 0.00 0.00 81 1020.4
20260902200007 81 58 4.0 6.0 0.00 0.00 0.00 80 1020.2
20260902194006 82 64 3.0 5.0 0.00 0.00 0.00 80 1019.9
20260902192004 82 46 4.0 6.0 0.00 0.00 0.00 79 1019.7
20260902191005 82 64 5.0 7.0 0.00 0.00 0.00 78 1019.5
20260902185005 82 49 6.0 10.0 0.00 0.00 0.00 76 1019.1
20260902184006 83 50 6.0 9.0 0.00 0.00 0.00 75 1019.0
20260902183006 83 53 5.0 7.0 0.00 0.00 0.00 74 1019.0
20260902182004 83 69 5.0 8.0 0.00 0.00 0.00 75 1019.0
20260902181028 83 74 5.0 8.0 0.00 0.00 0.00 74 1019.1
20260902180007 83 73 5.0 9.0 0.00 0.00 0.00 72 1019.2
20260902175004 84 70 7.0 10.0 0.00 0.00 0.00 70 1019.1
20260902174006 84 63 7.0 10.0 0.00 0.00 0.00 70 1019.1
20260902173006 85 73 7.0 11.0 0.00 0.00 0.00 68 1019.0
20260902172004 87 57 6.0 10.0 0.00 0.00 0.00 65 1019.0
20260902171004 87 76 6.0 10.0 0.00 0.00 0.00 65 1018.9
20260902170004 87 76 7.0 11.0 0.00 0.00 0.00 64 1018.8
20260902164005 87 106 6.0 11.0 0.00 0.00 0.00 64 1018.9
20260902163006 88 75 7.0 10.0 0.00 0.00 0.00 61 1018.8
20260902162005 88 69 8.0 12.0 0.00 0.00 0.00 60 1018.8
20260902161005 89 83 6.0 10.0 0.00 0.00 0.00 61 1018.8
20260902160009 88 107 6.0 10.0 0.00 0.00 0.00 62 1018.8
20260902155004 87 107 7.0 10.0 0.00 0.00 0.00 63 1018.8
20260902154005 88 96 7.0 10.0 0.00 0.00 0.00 61 1018.9
20260902153005 88 103 7.0 12.0 0.00 0.00 0.00 62 1018.9
20260902152005 88 89 9.0 14.0 0.00 0.00 0.00 60 1019.0
20260902151005 88 108 8.0 13.0 0.00 0.00 0.00 60 1019.0
20260902145004 89 86 7.0 12.0 0.00 0.00 0.00 59 1019.0
20260902144006 88 106 8.0 13.0 0.00 0.00 0.00 62 1019.2
20260902143008 89 93 8.0 12.0 0.00 0.00 0.00 58 1019.2
20260902135007 87 118 8.0 13.0 0.00 0.00 0.00 63 1019.5
20260902133006 88 90 8.0 13.0 0.00 0.00 0.00 61 1019.5
20260902131007 87 112 7.0 12.0 0.00 0.00 0.00 62 1019.6
20260902130010 86 109 9.0 12.0 0.00 0.00 0.00 65 1019.7
20260902125005 87 109 7.0 12.0 0.00 0.00 0.00 62 1019.8
20260902123004 88 113 8.0 12.0 0.00 0.00 0.00 60 1019.9
20260902122008 89 106 7.0 12.0 0.00 0.00 0.00 58 1019.9
20260902121005 87 120 9.0 13.0 0.00 0.00 0.00 61 1019.9
20260902120005 88 105 6.0 9.0 0.00 0.00 0.00 59 1020.0
20260902115005 87 120 7.0 11.0 0.00 0.00 0.00 62 1020.1
20260902114007 87 151 6.0 10.0 0.00 0.00 0.00 61 1020.1
20260902113004 88 105 6.0 10.0 0.00 0.00 0.00 59 1020.2
20260902112004 88 123 5.0 9.0 0.00 0.00 0.00 59 1020.2
20260902110007 86 141 5.0 8.0 0.00 0.00 0.00 62 1020.4
20260902105004 87 110 6.0 10.0 0.00 0.00 0.00 62 1020.4
20260902104004 86 143 6.0 9.0 0.00 0.00 0.00 64 1020.4
20260902103005 85 132 8.0 11.0 0.00 0.00 0.00 67 1020.5
20260902100008 84 122 6.0 10.0 0.00 0.00 0.00 66 1020.5
20260902095004 84 132 6.0 10.0 0.00 0.00 0.00 67 1020.6
20260902094005 85 109 7.0 11.0 0.00 0.00 0.00 65 1020.4
20260902093004 85 119 7.0 10.0 0.00 0.00 0.00 65 1020.4
20260902092003 85 103 7.0 11.0 0.00 0.00 0.00 65 1020.5
20260902091005 86 72 3.0 5.0 0.00 0.00 0.00 61 1020.4
20260902090006 85 140 3.0 5.0 0.00 0.00 0.00 64 1020.2
20260902083005 83 171 4.0 6.0 0.00 0.00 0.00 64 1019.6
20260902082006 83 200 2.0 4.0 0.00 0.00 0.00 63 1019.6
20260902081004 83 199 3.0 5.0 0.00 0.00 0.00 62 1019.7
20260902080005 83 237 1.0 3.0 0.00 0.00 0.00 61 1019.6
20260902075004 82 289 1.0 2.0 0.00 0.00 0.00 63 1019.5
20260902074006 81 214 2.0 3.0 0.00 0.00 0.00 64 1019.5
20260902073004 80 265 2.0 3.0 0.00 0.00 0.00 67 1019.4
20260902072004 79 287 2.0 4.0 0.00 0.00 0.00 69 1019.3
20260902071004 78 321 1.0 3.0 0.00 0.00 0.00 70 1019.1
20260902070007 77 294 2.0 3.0 0.00 0.00 0.00 72 1019.1
20260902065005 76 300 3.0 6.0 0.00 0.00 0.00 74 1019.0
20260902064005 76 284 2.0 4.0 0.00 0.00 0.00 76 1018.9
20260902063004 75 292 2.0 4.0 0.00 0.00 0.00 78 1018.8
20260902062005 74 281 3.0 5.0 0.00 0.00 0.00 80 1018.7
20260902060006 74 272 3.0 5.0 0.00 0.00 0.00 81 1018.5
20260902055006 74 267 2.0 4.0 0.00 0.00 0.00 82 1018.4
20260902054004 74 265 2.0 3.0 0.00 0.00 0.00 82 1018.5
20260902053005 74 285 2.0 4.0 0.00 0.00 0.00 80 1018.3
20260902052005 74 272 3.0 5.0 0.00 0.00 0.00 80 1018.3
20260902051004 74 293 4.0 7.0 0.00 0.00 0.00 80 1018.2
20260902050008 74 287 5.0 8.0 0.00 0.00 0.00 80 1018.2
20260902045004 74 291 5.0 8.0 0.00 0.00 0.00 80 1018.2
20260902041007 74 305 4.0 7.0 0.00 0.00 0.00 81 1018.1
20260902035005 74 310 6.0 8.0 0.00 0.00 0.00 81 1018.3
20260902034006 74 299 4.0 6.0 0.00 0.00 0.00 81 1018.3